SHT13T EGLL-EGNT

Flight info

Callsign SHT13T
Flight time 0h 45m
Altitude 30000
Route ULTIB T420 AKUPA UY250 RIMTO
Aircraft A319/M-SDE3FGHIRWY/LB1

Departure

Time 2026-05-05 14:48
Airport London Heathrow Airport (EGLL)

Arrival

Time 2026-05-05 15:33
Airport Newcastle International Airport (EGNT)
Time Latitude Longitude Altitude Speed Heading
2026-05-05 14:10 51.46931 -0.48576 89 ft 0 kts 360°
2026-05-05 14:34 51.46920 -0.48575 87 ft 2 kts 359°
2026-05-05 14:34 51.46903 -0.48575 87 ft 2 kts 360°
2026-05-05 14:34 51.46887 -0.48575 87 ft 2 kts 22°
2026-05-05 14:34 51.46876 -0.48594 89 ft 2 kts 88°
2026-05-05 14:35 51.46876 -0.48617 87 ft 1 kts 90°
2026-05-05 14:35 51.46876 -0.48619 87 ft 0 kts 90°
2026-05-05 14:41 51.46876 -0.48588 88 ft 6 kts 90°
2026-05-05 14:41 51.46874 -0.48501 87 ft 9 kts 101°
2026-05-05 14:42 51.46827 -0.48471 87 ft 0 kts 180°
2026-05-05 14:43 51.46819 -0.48471 87 ft 3 kts 180°
2026-05-05 14:43 51.46788 -0.48472 87 ft 6 kts 180°
2026-05-05 14:43 51.46743 -0.48472 87 ft 7 kts 180°
2026-05-05 14:44 51.46686 -0.48471 87 ft 9 kts 179°
2026-05-05 14:44 51.46625 -0.48470 87 ft 5 kts 179°
2026-05-05 14:44 51.46603 -0.48469 88 ft 0 kts 179°
2026-05-05 14:45 51.46601 -0.48469 88 ft 1 kts 179°
2026-05-05 14:46 51.46570 -0.48469 88 ft 6 kts 179°
2026-05-05 14:46 51.46525 -0.48469 89 ft 7 kts 180°
2026-05-05 14:46 51.46479 -0.48441 89 ft 8 kts 116°
2026-05-05 14:46 51.46478 -0.48380 90 ft 0 kts 89°
2026-05-05 14:47 51.46478 -0.48379 90 ft 0 kts 89°
2026-05-05 14:47 51.46478 -0.48366 89 ft 3 kts 89°
2026-05-05 14:47 51.46480 -0.47901 87 ft 69 kts 89°
2026-05-05 14:47 51.46484 -0.46820 89 ft 124 kts 90°
2026-05-05 14:48 51.46490 -0.45170 150 ft 164 kts 87°
2026-05-05 14:48 51.46492 -0.43426 965 ft 152 kts 87°
2026-05-05 14:48 51.46525 -0.42304 1412 ft 155 kts 79°
2026-05-05 14:48 51.46922 -0.40609 1754 ft 175 kts 54°
2026-05-05 14:49 51.47755 -0.39003 2088 ft 200 kts 49°
2026-05-05 14:49 51.48706 -0.37191 2569 ft 224 kts 50°
2026-05-05 14:49 51.49756 -0.35170 3157 ft 245 kts 50°
2026-05-05 14:49 51.50860 -0.33038 4118 ft 252 kts 50°
2026-05-05 14:50 51.51968 -0.30830 5111 ft 257 kts 55°
2026-05-05 14:50 51.52726 -0.28180 5757 ft 265 kts 69°
2026-05-05 14:50 51.53448 -0.25457 5939 ft 265 kts 56°
2026-05-05 14:50 51.54738 -0.23383 5982 ft 264 kts 31°
2026-05-05 14:51 51.56433 -0.22430 5980 ft 264 kts
2026-05-05 14:51 51.58243 -0.22773 5985 ft 265 kts 343°
2026-05-05 14:51 51.60017 -0.23591 6060 ft 265 kts 348°
2026-05-05 14:51 51.61803 -0.24316 6061 ft 265 kts 341°
2026-05-05 14:52 51.63472 -0.25587 6061 ft 266 kts 333°
2026-05-05 14:52 51.65093 -0.27032 6065 ft 267 kts 331°
2026-05-05 14:52 51.66698 -0.28534 6065 ft 267 kts 330°
2026-05-05 14:52 51.68308 -0.30075 6539 ft 270 kts 330°
2026-05-05 14:53 51.69926 -0.31636 7471 ft 272 kts 330°
2026-05-05 14:53 51.71538 -0.33197 8373 ft 276 kts 329°
2026-05-05 14:53 51.73197 -0.34801 9288 ft 280 kts 329°
2026-05-05 14:53 51.74836 -0.36386 10127 ft 285 kts 329°
2026-05-05 14:54 51.76649 -0.38143 10505 ft 308 kts 329°
2026-05-05 14:54 51.78547 -0.39985 10831 ft 326 kts 329°
2026-05-05 14:54 51.80516 -0.41897 11505 ft 333 kts 329°
2026-05-05 14:54 51.82521 -0.43843 12244 ft 338 kts 329°
2026-05-05 14:55 51.84547 -0.45809 12988 ft 343 kts 329°
2026-05-05 14:55 51.86580 -0.47780 13715 ft 347 kts 328°
2026-05-05 14:55 51.88662 -0.49804 14365 ft 351 kts 328°
2026-05-05 14:55 51.90767 -0.51850 15030 ft 355 kts 328°
2026-05-05 14:56 51.92892 -0.53920 15698 ft 358 kts 328°
2026-05-05 14:56 51.95034 -0.56010 16362 ft 362 kts 328°
2026-05-05 14:56 51.97193 -0.58117 17025 ft 365 kts 328°
2026-05-05 14:56 51.99391 -0.60262 17682 ft 369 kts 328°
2026-05-05 14:57 52.01597 -0.62420 18331 ft 372 kts 328°
2026-05-05 14:57 52.03825 -0.64606 18904 ft 376 kts 327°
2026-05-05 14:57 52.06071 -0.66814 19493 ft 379 kts 327°
2026-05-05 14:57 52.08302 -0.69012 20090 ft 382 kts 327°
2026-05-05 14:58 52.10582 -0.71259 20682 ft 385 kts 327°
2026-05-05 14:58 52.12879 -0.73523 21276 ft 388 kts 327°
2026-05-05 14:58 52.15192 -0.75803 21834 ft 391 kts 327°
2026-05-05 14:58 52.17527 -0.78105 22403 ft 394 kts 326°
2026-05-05 14:59 52.19880 -0.80428 22956 ft 397 kts 326°
2026-05-05 14:59 52.22252 -0.82771 23487 ft 400 kts 326°
2026-05-05 14:59 52.24644 -0.85136 23927 ft 404 kts 326°
2026-05-05 14:59 52.27053 -0.87523 24356 ft 407 kts 326°
2026-05-05 15:00 52.29448 -0.89903 24781 ft 410 kts 326°
2026-05-05 15:00 52.31097 -0.91544 25071 ft 412 kts 326°
2026-05-05 15:00 52.34352 -0.94790 25641 ft 416 kts 326°
2026-05-05 15:00 52.36831 -0.97265 26064 ft 419 kts 326°
2026-05-05 15:01 52.39326 -0.99761 26490 ft 422 kts 326°
2026-05-05 15:01 52.41839 -1.02276 26912 ft 425 kts 326°
2026-05-05 15:01 52.44375 -1.04794 27344 ft 428 kts 328°
2026-05-05 15:01 52.47089 -1.06877 27765 ft 434 kts 338°
2026-05-05 15:02 52.50014 -1.08219 28184 ft 440 kts 347°
2026-05-05 15:02 52.53028 -1.08743 28600 ft 445 kts 357°
2026-05-05 15:02 52.56138 -1.08562 29005 ft 449 kts
2026-05-05 15:02 52.59270 -1.08310 29409 ft 452 kts
2026-05-05 15:03 52.62416 -1.08071 29793 ft 454 kts
2026-05-05 15:03 52.65582 -1.07840 30000 ft 454 kts
2026-05-05 15:03 52.68692 -1.07613 30013 ft 441 kts
2026-05-05 15:03 52.71738 -1.07386 29996 ft 436 kts
2026-05-05 15:04 52.77668 -1.08295 30002 ft 430 kts 347°
2026-05-05 15:04 52.83539 -1.10091 30002 ft 429 kts 348°
2026-05-05 15:05 52.92341 -1.12745 30000 ft 428 kts 348°
2026-05-05 15:06 52.98198 -1.14533 30006 ft 428 kts 348°
2026-05-05 15:06 53.04012 -1.16316 30008 ft 427 kts 348°
2026-05-05 15:07 53.09855 -1.18105 30005 ft 426 kts 348°
2026-05-05 15:07 53.15682 -1.19909 30006 ft 425 kts 348°
2026-05-05 15:08 53.21494 -1.21711 29997 ft 424 kts 348°
2026-05-05 15:08 53.27259 -1.23496 29992 ft 424 kts 348°
2026-05-05 15:09 53.33056 -1.25287 29994 ft 424 kts 348°
2026-05-05 15:09 53.38855 -1.27089 30005 ft 424 kts 348°
2026-05-05 15:10 53.44697 -1.28376 30002 ft 424 kts 355°
2026-05-05 15:10 53.50531 -1.29089 29996 ft 424 kts 355°
2026-05-05 15:11 53.56405 -1.29978 30002 ft 423 kts 348°
2026-05-05 15:11 53.61886 -1.33304 30009 ft 419 kts 328°
2026-05-05 15:12 53.66867 -1.38365 29999 ft 418 kts 327°
2026-05-05 15:12 53.69359 -1.40898 29718 ft 417 kts 327°
2026-05-05 15:12 53.71828 -1.43397 29290 ft 412 kts 327°
2026-05-05 15:12 53.74279 -1.45874 28793 ft 408 kts 327°
2026-05-05 15:13 53.76701 -1.48327 28309 ft 404 kts 327°
2026-05-05 15:13 53.79067 -1.50732 27843 ft 401 kts 327°
2026-05-05 15:13 53.81444 -1.53151 27375 ft 397 kts 327°
2026-05-05 15:13 53.83799 -1.55555 26910 ft 394 kts 326°
2026-05-05 15:14 53.86132 -1.57948 26467 ft 390 kts 326°
2026-05-05 15:14 53.88446 -1.60327 26029 ft 388 kts 326°
2026-05-05 15:14 53.90743 -1.62687 25611 ft 385 kts 326°
2026-05-05 15:14 53.93032 -1.65038 25188 ft 383 kts 326°
2026-05-05 15:15 53.95305 -1.67372 24774 ft 381 kts 326°
2026-05-05 15:15 53.97537 -1.69664 24369 ft 379 kts 326°
2026-05-05 15:15 53.99782 -1.71979 23960 ft 376 kts 325°
2026-05-05 15:15 54.02012 -1.74286 23520 ft 374 kts 325°
2026-05-05 15:16 54.04226 -1.76579 23062 ft 371 kts 325°
2026-05-05 15:16 54.06414 -1.78846 22638 ft 366 kts 325°
2026-05-05 15:16 54.08575 -1.81084 22206 ft 362 kts 325°
2026-05-05 15:16 54.10722 -1.83274 21789 ft 359 kts 328°
2026-05-05 15:17 54.13028 -1.84888 21346 ft 359 kts 341°
2026-05-05 15:17 54.15488 -1.85635 20903 ft 361 kts 353°
2026-05-05 15:17 54.17965 -1.85485 20437 ft 362 kts
2026-05-05 15:17 54.20444 -1.84718 19972 ft 361 kts
2026-05-05 15:18 54.22909 -1.83937 19503 ft 359 kts
2026-05-05 15:18 54.25364 -1.83165 19034 ft 358 kts
2026-05-05 15:18 54.27806 -1.82402 18550 ft 356 kts
2026-05-05 15:18 54.30241 -1.81641 18050 ft 355 kts
2026-05-05 15:19 54.32661 -1.80884 17568 ft 352 kts
2026-05-05 15:19 54.35027 -1.80141 17099 ft 349 kts
2026-05-05 15:19 54.37403 -1.79393 16621 ft 346 kts
2026-05-05 15:19 54.39760 -1.78649 16167 ft 343 kts
2026-05-05 15:20 54.42099 -1.77910 15551 ft 345 kts
2026-05-05 15:20 54.44482 -1.77160 14813 ft 350 kts
2026-05-05 15:20 54.46890 -1.76401 14089 ft 354 kts
2026-05-05 15:20 54.49316 -1.75636 13513 ft 352 kts
2026-05-05 15:21 54.51704 -1.74877 12973 ft 348 kts
2026-05-05 15:21 54.54043 -1.74129 12406 ft 345 kts
2026-05-05 15:21 54.56393 -1.73378 11859 ft 342 kts
2026-05-05 15:21 54.58719 -1.72636 11328 ft 338 kts
2026-05-05 15:22 54.61007 -1.71905 11066 ft 328 kts
2026-05-05 15:22 54.63201 -1.71202 10938 ft 314 kts
2026-05-05 15:22 54.65305 -1.70529 10816 ft 302 kts
2026-05-05 15:22 54.67331 -1.69877 10692 ft 291 kts
2026-05-05 15:23 54.69286 -1.69574 10564 ft 274 kts 353°
2026-05-05 15:23 54.71107 -1.70213 10281 ft 265 kts 336°
2026-05-05 15:23 54.72723 -1.71587 9994 ft 261 kts 330°
2026-05-05 15:23 54.74326 -1.73053 9685 ft 260 kts 330°
2026-05-05 15:24 54.75924 -1.74499 9357 ft 258 kts 330°
2026-05-05 15:24 54.77479 -1.75900 9172 ft 246 kts 330°
2026-05-05 15:24 54.78972 -1.77245 8874 ft 239 kts 330°
2026-05-05 15:24 54.80423 -1.78614 8520 ft 235 kts 324°
2026-05-05 15:25 54.81598 -1.80553 8214 ft 233 kts 311°
2026-05-05 15:25 54.82671 -1.82646 7941 ft 232 kts 310°
2026-05-05 15:25 54.83728 -1.84748 7650 ft 230 kts 310°
2026-05-05 15:25 54.84770 -1.86834 7444 ft 226 kts 310°
2026-05-05 15:26 54.85764 -1.88833 7324 ft 216 kts 310°
2026-05-05 15:26 54.86599 -1.90935 7098 ft 209 kts 301°
2026-05-05 15:26 54.87339 -1.93110 6761 ft 209 kts 300°
2026-05-05 15:26 54.88067 -1.95289 6418 ft 208 kts 300°
2026-05-05 15:27 54.88797 -1.97464 6044 ft 209 kts 303°
2026-05-05 15:27 54.89865 -1.99120 5606 ft 210 kts 334°
2026-05-05 15:27 54.91224 -2.00114 5102 ft 215 kts 340°
2026-05-05 15:27 54.92638 -2.01048 4665 ft 217 kts 343°
2026-05-05 15:28 54.94099 -2.01209 4254 ft 212 kts 15°
2026-05-05 15:28 54.95323 -2.00002 4053 ft 200 kts 44°
2026-05-05 15:28 54.96049 -1.97961 3815 ft 198 kts 62°
2026-05-05 15:28 54.96622 -1.95815 3562 ft 194 kts 62°
2026-05-05 15:29 54.97187 -1.93706 3293 ft 190 kts 62°
2026-05-05 15:29 54.97732 -1.91673 3067 ft 178 kts 62°
2026-05-05 15:29 54.98240 -1.89776 2801 ft 166 kts 62°
2026-05-05 15:29 54.98712 -1.88015 2583 ft 155 kts 61°
2026-05-05 15:30 54.99162 -1.86335 2363 ft 151 kts 61°
2026-05-05 15:30 54.99608 -1.84675 2163 ft 151 kts 62°
2026-05-05 15:30 55.00044 -1.83058 1950 ft 149 kts 61°
2026-05-05 15:30 55.00477 -1.81436 1724 ft 144 kts 61°
2026-05-05 15:31 55.00874 -1.79940 1569 ft 131 kts 61°
2026-05-05 15:31 55.01248 -1.78545 1385 ft 124 kts 59°
2026-05-05 15:31 55.01616 -1.77178 1201 ft 123 kts 61°
2026-05-05 15:31 55.01969 -1.75840 1009 ft 121 kts 62°
2026-05-05 15:32 55.02326 -1.74507 827 ft 123 kts 63°
2026-05-05 15:32 55.02694 -1.73139 664 ft 125 kts 61°
2026-05-05 15:32 55.03040 -1.71820 488 ft 122 kts 64°
2026-05-05 15:32 55.03389 -1.70490 313 ft 122 kts 63°
2026-05-05 15:33 55.03700 -1.69330 267 ft 75 kts 65°
2026-05-05 15:33 55.03863 -1.68719 261 ft 54 kts 65°
2026-05-05 15:33 55.03991 -1.68364 258 ft 31 kts 35°
2026-05-05 15:33 55.04133 -1.68242 257 ft 20 kts 333°
2026-05-05 15:34 55.04113 -1.68464 259 ft 21 kts 245°
2026-05-05 15:34 55.04051 -1.68699 261 ft 22 kts 245°
2026-05-05 15:34 55.03986 -1.68944 264 ft 23 kts 245°
2026-05-05 15:34 55.03917 -1.69201 266 ft 24 kts 244°
2026-05-05 15:35 55.03846 -1.69470 268 ft 25 kts 246°
2026-05-05 15:35 55.03792 -1.69761 270 ft 26 kts 257°
2026-05-05 15:35 55.03772 -1.70089 270 ft 29 kts 270°
2026-05-05 15:35 55.03780 -1.70363 268 ft 15 kts 269°
2026-05-05 15:36 55.03699 -1.70435 271 ft 14 kts 183°
2026-05-05 15:36 55.03607 -1.70472 276 ft 14 kts 225°
2026-05-05 15:36 55.03592 -1.70644 275 ft 16 kts 271°
2026-05-05 15:36 55.03597 -1.70776 275 ft 10 kts 275°
2026-05-05 15:37 55.03603 -1.70844 275 ft 5 kts 296°
2026-05-05 15:37 55.03644 -1.70848 274 ft 6 kts
2026-05-05 15:37 55.03669 -1.70845 276 ft 2 kts
2026-05-05 15:37 55.03673 -1.70845 275 ft 0 kts